(196261) = 2001 SN285 = 2003 EQ9

Discovered at Anderson Mesa on 2003-03-06 by LONEOS.

Orbit

Orbit type: Main Belt

Note: WebGL enabled browser required.

epoch2024-03-31.0
epoch JD2460400.5
perihelion date2021-03-10.02950
perihelion JD2459283.52950
argument of perihelion (°)320.54438
ascending node (°)218.92134
inclination (°)2.00125
eccentricity0.1463503
perihelion distance (AU)2.0013705
Tisserand w.r.t. Jupiter3.5
ΔV w.r.t. Earth (km/sec)8.8
semimajor axis (AU)2.3444868
mean anomaly (°)306.67180
mean daily motion (°/day)0.27455680
aphelion distance (AU)2.688
period (years)3.59
P-vector [x]-0.99971301
P-vector [y]0.01710599
P-vector [z]-0.01677134
Q-vector [x]-0.00962061
Q-vector [y]-0.92783140
Q-vector [z]-0.37287577
absolute magnitude17.25
phase slope0.15
uncertainty0
referenceMPEC 2024-E23
observations used387
oppositions14
arc length (days)8197
first opposition used2001
last opposition used2024
residual rms (arc-secs)0.78
perturbers coarse indicatorM-v
perturbers precise indicator003Ek
first observation date used2001-09-22.0
last observation date used2024-03-02.0
computer nameMPCLINUX
JD of orbit computation2456819.629048
perihelion JD uncertainty (days)5.8176E-05
argument of perihelion uncertainty (°)9.8710E-05
ascending node uncertainty (°)9.7267E-05
inclination uncertainty (°)5.6762E-06
eccentricity uncertainty 5.0815E-08
perihelion distance uncertainty (AU)1.1436E-07
Minimum Orbit Intersection Distances (in AU)
for orbit epoch: 2460400.5, reference: E2024-E23
Mercury1.59587
Venus1.28483
Earth1.00543
Mars0.35726
Jupiter2.27345
Saturn6.61052
Uranus16.4253
Neptune27.1726

Observations

400 total observations over interval: 2001 09 22.34640 – 2024 03 02.287909
These data are available for download (format description).

Date (UT) J2000 RA J2000 Dec Magn Location Ref
2001 09 22.34640 01 59 57.81 +13 15 02.2 21.8 V 291 – LPL/Spacewatch II MPS 36840
2001 09 22.35238 01 59 57.58 +13 15 01.0 21.6 V 291 – LPL/Spacewatch II MPS 36840
2001 09 22.35829 01 59 57.33 +13 14 59.9 21.4 V 291 – LPL/Spacewatch II MPS 36840
2001 09 23.39451 01 59 19.70 +13 11 11.5 22.0 V 291 – LPL/Spacewatch II MPS 36840
2001 09 23.40393 01 59 19.31 +13 11 09.5 22.0 V 291 – LPL/Spacewatch II MPS 36840
2001 09 23.41351 01 59 18.95 +13 11 06.8 22.0 V 291 – LPL/Spacewatch II MPS 36840
2003 03 06.30374 11 42 45.01 -01 19 05.9 18.8 R 699 – Lowell Observatory-LONEOS MPS 74431
2003 03 06.31859 11 42 44.26 -01 19 01.7   699 – Lowell Observatory-LONEOS MPS 74431
2003 03 06.33349 11 42 43.39 -01 18 54.9   699 – Lowell Observatory-LONEOS MPS 74431
2003 03 06.34837 11 42 42.61 -01 18 50.0   699 – Lowell Observatory-LONEOS MPS 74431
2003 03 07.29165 11 41 56.81 -01 13 13.4 18.9 R 699 – Lowell Observatory-LONEOS MPS 74431
2003 03 07.30767 11 41 55.99 -01 13 08.2   699 – Lowell Observatory-LONEOS MPS 74431
2003 03 07.30849 11 41 55.93 -01 13 07.8 19.0   704 – Lincoln Laboratory ETS, New Mexico MPS 74431
2003 03 07.32240 11 41 55.20 -01 13 02.3 18.9   704 – Lincoln Laboratory ETS, New Mexico MPS 74431
2003 03 07.32363 11 41 55.18 -01 13 02.0   699 – Lowell Observatory-LONEOS MPS 74431
2003 03 07.33960 11 41 54.27 -01 12 56.6   699 – Lowell Observatory-LONEOS MPS 74431
2003 03 07.35774 11 41 53.37 -01 12 48.5 19.1   704 – Lincoln Laboratory ETS, New Mexico MPS 74431
2003 03 07.37210 11 41 52.59 -01 12 44.3 19.4   704 – Lincoln Laboratory ETS, New Mexico MPS 74431
2003 03 24.22032 11 27 37.75 +00 38 45.2 19.0 V 691 – Steward Observatory, Kitt Peak-Spacewatch MPS 76209
2003 03 24.24694 11 27 36.38 +00 38 56.3 19.0 V 691 – Steward Observatory, Kitt Peak-Spacewatch MPS 76209
2003 03 24.27350 11 27 35.05 +00 39 06.6 19.0 V 691 – Steward Observatory, Kitt Peak-Spacewatch MPS 76209
2003 03 25.20098 11 26 51.04 +00 45 17.8 19.2   644 – Palomar Mountain/NEAT MPS 76209
2003 03 25.26556 11 26 47.82 +00 45 43.6 19.2   644 – Palomar Mountain/NEAT MPS 76209
2003 03 25.32951 11 26 44.60 +00 46 09.0 19.3   644 – Palomar Mountain/NEAT MPS 76209
2003 03 27.28394 11 25 14.42 +00 58 58.6 19.2 V 703 – Catalina Sky Survey MPS 76209
2003 03 27.29372 11 25 13.78 +00 59 02.7 18.9 V 703 – Catalina Sky Survey MPS 76209
2003 03 27.30336 11 25 13.33 +00 59 04.4 18.9 V 703 – Catalina Sky Survey MPS 76209
2003 03 27.31310 11 25 13.09 +00 59 10.2 18.8 V 703 – Catalina Sky Survey MPS 76209
2003 03 31.24993 11 22 24.35 +01 24 01.8 19.9 V 703 – Catalina Sky Survey MPS 78311
2003 03 31.25943 11 22 23.93 +01 24 07.2 19.6 V 703 – Catalina Sky Survey MPS 78311
2003 03 31.26892 11 22 23.51 +01 24 11.6 19.4 V 703 – Catalina Sky Survey MPS 78311
2003 03 31.27847 11 22 23.23 +01 24 14.3 19.5 V 703 – Catalina Sky Survey MPS 78311
2003 04 07.15143 11 18 22.04 +02 02 53.5 20.2 V 691 – Steward Observatory, Kitt Peak-Spacewatch MPS 76209
2003 04 07.17741 11 18 21.21 +02 03 01.6 20.4 V 691 – Steward Observatory, Kitt Peak-Spacewatch MPS 76209
2003 04 07.20423 11 18 20.34 +02 03 09.6 20.3 V 691 – Steward Observatory, Kitt Peak-Spacewatch MPS 76209
2005 10 28.39452 05 12 47.59 +21 47 59.7 20.7 V G96 – Mt. Lemmon Survey MPS 147451
2005 10 28.40135 05 12 47.44 +21 47 58.8 20.5 V G96 – Mt. Lemmon Survey MPS 147451
2005 10 28.40819 05 12 47.30 +21 47 58.2 20.7 V G96 – Mt. Lemmon Survey MPS 147451
2005 10 28.41502 05 12 47.19 +21 47 57.0 21.1 V G96 – Mt. Lemmon Survey MPS 147451
2005 11 10.38491 05 06 12.52 +21 25 13.8 19.1 V G96 – Mt. Lemmon Survey MPS 149490
2005 11 10.39186 05 06 12.20 +21 25 11.6 20.7 V G96 – Mt. Lemmon Survey MPS 149490
2005 11 10.39880 05 06 11.88 +21 25 10.7 20.6 V G96 – Mt. Lemmon Survey MPS 149490
2005 11 10.40554 05 06 11.55 +21 25 09.9 20.1 V G96 – Mt. Lemmon Survey MPS 149490
2005 11 28.35402 04 49 34.32 +20 41 09.3 20.1 V G96 – Mt. Lemmon Survey MPS 152032
2005 11 28.36071 04 49 33.88 +20 41 08.2 20.1 V G96 – Mt. Lemmon Survey MPS 152032
2005 11 28.36734 04 49 33.42 +20 41 06.9 19.8 V G96 – Mt. Lemmon Survey MPS 152032
2005 11 28.37404 04 49 32.98 +20 41 05.8 20.3 V G96 – Mt. Lemmon Survey MPS 152032
2005 11 30.32380 04 47 24.54 +20 35 35.7 19.5 V G96 – Mt. Lemmon Survey MPS 152032
2005 11 30.32845 04 47 24.25 +20 35 34.8 19.6 V G96 – Mt. Lemmon Survey MPS 152032
2005 11 30.33301 04 47 23.92 +20 35 34.1 19.9 V G96 – Mt. Lemmon Survey MPS 152032
2005 12 04.15480 04 43 07.88 +20 24 32.6 20.2 V 691 – Steward Observatory, Kitt Peak-Spacewatch MPS 153654
2005 12 04.17235 04 43 06.67 +20 24 29.5 20.0 V 691 – Steward Observatory, Kitt Peak-Spacewatch MPS 153654
2005 12 04.18971 04 43 05.39 +20 24 26.2 21.2 V 691 – Steward Observatory, Kitt Peak-Spacewatch MPS 153654
2005 12 29.23435 04 18 10.94 +19 18 06.4 20.2 V G96 – Mt. Lemmon Survey MPS 156547
2005 12 29.24324 04 18 10.54 +19 18 05.4 20.2 V G96 – Mt. Lemmon Survey MPS 156547
2005 12 29.25250 04 18 10.11 +19 18 04.3 20.1 V G96 – Mt. Lemmon Survey MPS 156547
2005 12 29.26176 04 18 09.68 +19 18 03.3 19.9 V G96 – Mt. Lemmon Survey MPS 156547
2008 09 09.12216 00 50 20.02 +07 16 57.7   621 – Bergisch Gladbach MPS 255801
2008 09 09.13329 00 50 19.45 +07 16 55.0   621 – Bergisch Gladbach MPS 255801
2008 09 09.14442 00 50 19.09 +07 16 52.0 21 C 621 – Bergisch Gladbach MPS 255801
2008 10 01.32110 00 31 39.79 +05 09 17.8 20.6 V G96 – Mt. Lemmon Survey MPS 257839
2008 10 01.32598 00 31 39.50 +05 09 15.8 20.6 V G96 – Mt. Lemmon Survey MPS 257839
2008 10 01.33088 00 31 39.21 +05 09 13.6 20.4 V G96 – Mt. Lemmon Survey MPS 257839
2008 10 01.33575 00 31 38.96 +05 09 11.8 20.8 V G96 – Mt. Lemmon Survey MPS 257839
2008 10 01.36146 00 31 37.45 +05 09 02.1   291 – LPL/Spacewatch II MPS 257839
2008 10 01.36528 00 31 37.24 +05 09 00.5   291 – LPL/Spacewatch II MPS 257839
2008 10 01.36901 00 31 37.02 +05 08 59.0   291 – LPL/Spacewatch II MPS 257839
2008 10 02.37971 00 30 40.88 +05 02 19.5   291 – LPL/Spacewatch II MPS 257839
2008 10 02.38342 00 30 40.67 +05 02 18.0   291 – LPL/Spacewatch II MPS 257839
2008 10 02.38712 00 30 40.47 +05 02 16.7   291 – LPL/Spacewatch II MPS 257839
2008 10 17.21981 00 17 39.33 +03 26 37.9 20.8 V 691 – Steward Observatory, Kitt Peak-Spacewatch MPS 260226
2008 10 17.25671 00 17 37.49 +03 26 24.6 20.9 V 691 – Steward Observatory, Kitt Peak-Spacewatch MPS 260226
2008 10 17.29361 00 17 35.70 +03 26 11.5 21.1 V 691 – Steward Observatory, Kitt Peak-Spacewatch MPS 260226
2008 10 18.09451 00 16 58.12 +03 21 22.3 20.7 V 691 – Steward Observatory, Kitt Peak-Spacewatch MPS 260543
2008 10 18.12105 00 16 56.84 +03 21 12.6 20.9 V 691 – Steward Observatory, Kitt Peak-Spacewatch MPS 260543
2008 10 18.14760 00 16 55.55 +03 21 03.0 21.0 V 691 – Steward Observatory, Kitt Peak-Spacewatch MPS 260543
2008 10 24.18983 00 12 31.60 +02 46 53.3 21.3 V G96 – Mt. Lemmon Survey MPS 260543
2008 10 24.19638 00 12 31.32 +02 46 51.3 21.1 V G96 – Mt. Lemmon Survey MPS 260543
2008 10 24.20294 00 12 31.03 +02 46 48.9 21.2 V G96 – Mt. Lemmon Survey MPS 260543
2008 10 24.20949 00 12 30.78 +02 46 47.2 21.3 V G96 – Mt. Lemmon Survey MPS 260543
2010 01 06.40202 09 37 04.92 +10 37 05.3 20.1 V 691 – Steward Observatory, Kitt Peak-Spacewatch MPS 310057
2010 01 06.41971 09 37 04.50 +10 37 05.1 20.2 V 691 – Steward Observatory, Kitt Peak-Spacewatch MPS 310057
2010 01 06.43738 09 37 04.13 +10 37 05.3 20.1 V 691 – Steward Observatory, Kitt Peak-Spacewatch MPS 310057
2010 01 18.29273 09 30 58.48 +10 53 03.1 20.0   704 – Lincoln Laboratory ETS, New Mexico MPS 311785
2010 01 18.30524 09 30 57.84 +10 53 05.6 19.9   704 – Lincoln Laboratory ETS, New Mexico MPS 311785
2010 01 18.31778 09 30 57.31 +10 53 06.3 19.9   704 – Lincoln Laboratory ETS, New Mexico MPS 311785
2010 01 18.33032 09 30 56.74 +10 53 09.1 19.5   704 – Lincoln Laboratory ETS, New Mexico MPS 311785
2010 02 05.25178 09 15 10.18 +11 58 35.5 19.2 V 703 – Catalina Sky Survey MPS 316418
2010 02 05.25701 09 15 09.86 +11 58 36.2 19.2 V 703 – Catalina Sky Survey MPS 316418
2010 02 05.26222 09 15 09.50 +11 58 37.6 18.9 V 703 – Catalina Sky Survey MPS 316418
2010 02 05.26745 09 15 09.28 +11 58 38.8 19.5 V 703 – Catalina Sky Survey MPS 316418
